Location: Newark
(27.9675°N, 86.8869°E)
Time: 06:13:05
(UTC+00:00)

Courier 1B Rocket - Pass Details

Date: 24 October 2019
Orbit: 920 x 1202 km, 28.2° (Epoch: 12 November)

Event Time Altitude Azimuth Distance (km) Brightness Sun altitude
Rises 03:12:45 0° 260° (W) 3,613 7.7 33.9°
Reaches altitude 10° 03:17:34 10° 228° (SW) 2,723 7.4 34.8°
Maximum altitude 03:19:33 11° 210° (SSW) 2,646 7.5 35.1°
Drops below altitude 10° 03:21:34 10° 193° (SSW) 2,778 7.8 35.4°
Sets 03:26:41 0° 161° (SSE) 3,808 8.9 36.3°
